Location: Caltech
(34.1382°N, 118.1253°W)
Time: 22:54:55
(UTC-07:00)

SO-50 - Visible Passes

Search period start: 21 August 2014 00:00
Search period end: 31 August 2014 00:00
Orbit: 609 x 688 km, 64.6° (Epoch: 21 August)

Date Brightness Start Highest point End Pass type
(mag) Time Alt. Az. Time Alt. Az. Time Alt. Az.
21 Aug ? 05:01:21 10° SE 05:03:18 13° ESE 05:05:16 10° E visible
22 Aug ? 05:25:40 10° S 05:29:44 37° ESE 05:33:53 10° NE visible
23 Aug ? 05:51:59 10° SW 05:56:24 75° WNW 06:00:57 10° NNE visible
24 Aug ? 04:39:17 10° SSE 04:42:56 25° ESE 04:46:39 10° NE visible
25 Aug ? 05:06:07 17° SSW 05:09:31 76° ESE 05:14:03 10° NNE visible
26 Aug ? 03:55:07 16° SE 03:56:10 18° ESE 03:59:09 10° ENE visible
26 Aug ? 05:32:54 14° WSW 05:36:22 38° NW 05:40:37 10° NNE visible
27 Aug ? 04:21:49 44° SSE 04:22:39 51° ESE 04:27:03 10° NE visible
28 Aug ? 03:10:39 11° E 03:10:39 11° E 03:11:06 10° E visible
28 Aug ? 04:48:26 44° WSW 04:49:24 54° WNW 04:53:52 10° NNE visible
29 Aug ? 03:37:12 28° ENE 03:37:12 28° ENE 03:39:56 10° NE visible
29 Aug ? 05:14:58 18° WNW 05:16:27 21° NW 05:19:56 10° N visible
30 Aug ? 04:03:40 49° NNE 04:03:40 49° NNE 04:07:02 10° NNE visible
